Home > Time Zones > World Clock > Weather > Norway > Oslo > Past weeks

Flag for Norway Weather past 2 weeks in Oslo, Norway

Now
40 °F

Quite cool.


Feels Like: 40 °F
Forecast: 52 / 56 °F
Wind: 2 mph from East

Location: Oslo-Blindern

Current Time: Oct 23, 2014 at 10:05:53 AM

Latest Report: Oct 23, 2014 at 9:00 AM


Visibility: N/A

Pressure: 30.03 "Hg

Humidity: 94%

Dew point: 39 °F

Location of OsloLocation

Historic Weather in Oslo — Graph

°F

Oslo temperature yesterday

Maximum temperature yesterday: 47 °F (at 4:00 AM)
Minimum temperature yesterday: 38 °F (at 11:00 PM)
Average temperature yesterday: 43 °F

Past Weeks' High & Low Weather Summary

 TemperatureHumidityPressure
High59 °F (Oct 20, 2:00 PM)100% (Oct 14, 8:00 AM)30.13 "Hg (Oct 14, 8:00 AM)
Low35 °F (Oct 14, 5:00 AM)66% (Oct 20, 3:00 PM)29.29 "Hg (Oct 20, 1:00 AM)
Average46 °F90%29.77 "Hg
* Reported Oct 8 8:00 AM — Oct 23 8:00 AM, Oslo, Weather by CustomWeather, © 2014

Note: Actual official high and low records may vary slightly from our data, if they occured in-between our weather recording intervals... More about our weather records

Advertising

Oslo weather history for previous 24 hours

 ConditionsComfort  
Time TempWeatherWind HumidityBarometerVisibility
8:00 AM
Oct 23
40 °FLight rain. Low clouds.2 mph95%30.04 "Hg9 mi
7:00 AM39 °FChilly.2 mph94%30.05 "HgN/A
6:00 AM39 °FChilly.2 mph95%30.06 "HgN/A
5:00 AM38 °FLight rain. Low clouds.2 mph93%30.07 "Hg4 mi
4:00 AM38 °FChilly.3 mph94%30.09 "HgN/A
3:00 AM38 °FChilly.3 mph92%30.10 "HgN/A
2:00 AM38 °FLight rain. Low clouds.2 mph92%30.11 "Hg4 mi
1:00 AM37 °FChilly.2 mph94%30.11 "HgN/A
12:00 AM37 °FChilly.2 mph93%30.11 "HgN/A
11:00 PM
Oct 22
38 °FRain. Low clouds.2 mph92%30.10 "Hg4 mi
10:00 PM38 °FChilly.3 mph90%30.10 "HgN/A
9:00 PM39 °FChilly.3 mph90%30.08 "HgN/A
8:00 PM39 °FLight rain. Low clouds.3 mph91%30.06 "Hg6 mi
7:00 PM40 °FChilly.3 mph91%30.06 "HgN/A
6:00 PM40 °FChilly.3 mph93%30.04 "HgN/A
5:00 PM41 °FLight rain. Low clouds.2 mph92%30.02 "Hg6 mi
4:00 PM41 °FQuite cool.6 mph88%29.99 "HgN/A
3:00 PM41 °FQuite cool.5 mph92%29.99 "HgN/A
2:00 PM42 °FLight rain. Low clouds.2 mph92%29.98 "Hg5 mi
1:00 PM43 °FQuite cool.5 mph91%29.95 "HgN/A
12:00 PM43 °FQuite cool.3 mph90%29.92 "HgN/A
11:00 AM44 °FLight rain. Overcast.5 mph89%29.89 "Hg7 mi
10:00 AM45 °FQuite cool.3 mph87%29.86 "HgN/A
Weather by CustomWeather, © 2014

See weather overviewHow to use our weather pages